Regional Weather Roundup
Issued by NWS

Home | Current Version | Previous Version | Text Only | Print | Product List | Glossary On
Versions: 1 2 3 4 5 6 7 8 9 10 11 12 13 14 15 16 17 18 19 20 21 22 23 24 25 26 27 28 29 30 31 32 33 34 35 36 37 38 39 40 41 42 43 44 45 46 47 48 49 50
000
ASCA44 KEWX 292320
RWRMX

LATIN AMERICA AND CARIBBEAN REGIONAL WEATHER ROUNDUP
NATIONAL WEATHER SERVICE AUSTIN/SAN ANTONIO TX
600 PM CDT FRI APR 29 2016

NOTE: "FAIR" INDICATED FEW OR NO CLOUDS BELOW 12,000 FEET WITH NO
SIGNIFICANT WEATHER AND/OR OBSTRUCTIONS TO VISIBILITY.

BAJA CALIFORNIA

CITY           SKY/WX    TMP DP  RH WIND       PRES   REMARKS
LORETO         PTSUNNY   75  63  64 NE12      29.85F
LA PAZ         PTSUNNY   79  55  44 N12       29.86
MEXICALI       SUNNY     86  28  12 CALM      29.79
S.J. DEL CABO  MOSUNNY   81  61  50 SE12      29.84F
TIJUANA        MOSUNNY   63  48  59 W14       30.00F

NORTHWESTERN MEXICO

CITY           SKY/WX    TMP DP  RH WIND       PRES   REMARKS
CULIACAN       CLOUDY    84  68  58 S12       29.85
DURANGO        CLOUDY    77   5   6 S20       29.98
GUAYMAS        SUNNY     77  57  50 W20       29.78
HERMOSILLO     SUNNY     86  32  14 S8        29.85
CD. JUAREZ     SUNNY     73  27  17 W17       29.77
LOS MOCHIS     PTSUNNY   79  63  57 W9        29.83F
OBREGON        MOSUNNY   86  36  16 W13       29.79

NORTHEASTERN MEXICO

CITY           SKY/WX    TMP DP  RH WIND       PRES   REMARKS
CHIHUAHUA      MOSUNNY   82  19   9 W18       29.80
MATAMOROS      CLOUDY    82  77  83 SE12      29.59  HX  91
MONCLOVA         N/A    N/A N/A N/A MISG        N/A
MONTERREY      CLOUDY    88  61  40 SE10      29.59S
NUEVO LAREDO   PTSUNNY   93  70  46 SE9       29.54  HX  99
PIEDRAS NEGRAS PTSUNNY   88  68  51 NE12      29.56  HX  91
REYNOSA        CLOUDY    81  72  74 SE14      29.57
SALTILLO       CLOUDY    81  50  34 SW7       29.88F
TORREON        PTSUNNY   91  12   5 SW9       29.74F
CD. VICTORIA   PTSUNNY   91  70  49 SW6       29.56  HX  97

WESTERN MEXICO

CITY           SKY/WX    TMP DP  RH WIND       PRES   REMARKS
AGUASCALIENTES PTSUNNY   81   3   5 W15       30.02
COLIMA         PTSUNNY   81  48  32 W14       29.93S
DEL BAJIO      CLOUDY    84   9   6 SW12      30.07F
GUADALAJARA    CLOUDY    86   7   5 SW13G25   29.98
MANZANILLO     MOSUNNY   77  72  83 W17       29.77F
MAZATLAN       CLOUDY    79  64  61 W7        29.83F
P. VALLARTA    CLOUDY    79  68  69 SW13      29.82F
URUAPAN        CLOUDY    82  39  21 S9        30.03F
ZACATECAS      MOSUNNY   77  19  11 W29       30.06F

CENTRAL MEXICO

CITY           SKY/WX    TMP DP  RH WIND       PRES   REMARKS
CUERNAVACA       N/A    N/A N/A N/A MISG        N/A
MEXICO CITY    CLOUDY    81  34  18 S20       30.11R
MORELIA        CLOUDY    82  19   9 S22       30.03
POZA RICA      PTSUNNY   90  75  62 NE7       29.53F HX 100
PUEBLA         CLOUDY    79  34  19 SW29      30.10S
QUERETARO      CLOUDY    84  21  10 W18       30.06S
S. LUIS POTOSI CLOUDY    84  -6   3 W21       29.96F
TAMPICO        PTSUNNY   82  75  78 SE12      29.53F
TOLUCA         CLOUDY    79  32  18 W17       30.22S

SOUTHERN MEXICO

CITY           SKY/WX    TMP DP  RH WIND       PRES   REMARKS
ACAPULCO       MOSUNNY   82  73  74 W15       29.75F
B. DE HUATULCO MOSUNNY   84  72  65 W16       29.80
OAXACA         PTSUNNY   90  41  18 S15       29.95R
P. ESCONDIDO   MOSUNNY   82  75  78 W12       29.86S
VERACRUZ       PTSUNNY   90  73  58 E14       29.55S HX  98
ZIHUATANEJO    PTSUNNY   84  72  65 W16       29.79S

YUCATAN PENINSULA

CITY           SKY/WX    TMP DP  RH WIND       PRES   REMARKS
CAMPECHE       MOSUNNY  102  64  29 E12       29.62S HX 105
CANCUN         PTSUNNY   82  75  78 E14       29.84S
CHETUMAL       PTSUNNY   86  73  66 SE14      29.76  HX  93
CD. DEL CARMEN PTSUNNY   90  79  70 NE9       29.62  HX 105
COZUMEL        MOSUNNY   81  73  78 E15       29.83S
MERIDA         CLOUDY   100  64  30 SE14      29.68S HX 103
MINATITLAN     PTSUNNY   99  68  36 S12       29.53F HX 104
TAPACHULA      PTSUNNY   90  77  66 W9        29.74R HX 102
TUX. GUTIERREZ SUNNY     95  54  24 SW8G23    29.70S HX  93
VILLAHERMOSA   SUNNY     97  77  52 E17       29.63S HX 112

CENTRAL AMERICA

CITY           SKY/WX    TMP DP  RH WIND       PRES   REMARKS
BELIZE CITY    PTSUNNY   86  79  79 E10       29.77S HX  99
MANAGUA        PTCLDY    91  77  62 N9        29.68S HX 105

CARIBBEAN

CITY           SKY/WX    TMP DP  RH WIND       PRES   REMARKS
ARUBA          PTCLDY    84  79  84 NE17      29.77S HX  96
CURACAO        PTCLDY    82  79  89 E13       29.80S HX  93
KINGSTON       PTCLDY    86  75  70 SE8       29.83S HX  95
NASSAU         PTCLDY    77  59  53 NE9       29.96S
SAN JUAN       MOCLDY    79  72  78 CALM      29.89S
SANTO DOMINGO  TSTM      79  77  94 CALM      29.86R
ST. CROIX      CLEAR     82  73  74 E10       29.92F
ST. KITTS      PTCLDY    81  75  83 E9        29.94
ST. MAARTEN    PTCLDY    82  75  78 SE9       29.94R
ST. THOMAS     PTCLDY    82  77  83 E13       29.90  HX  91

$$





USA.gov is the U.S. government's official web portal to all federal, state and local government web resources and services.